This demonstration page uses our WeatherBlox Daily Observations layout. Learn more.

40.92945, -100.16068

Hourly Observations for August 15, 2018

Temp ( °F °C ) Dew Point ( °F °C ) Humidity (%) Winds ( mph kmh ) Pressure ( in mb ) Visibility ( mi km ) Precip ( " mm )
12:15 am 00:15 Clear with Mist and Fog 64 17.5 62 16.6 95 95 WNW 3 6 29.94 1014 5 8.0467 0 0
12:35 am 00:35 Clear with Mist and Fog 62 16.8 61 16 95 95 WNW 5 7 29.94 1014 5 8.0467 0 0
12:55 am 00:55 Clear with Mist and Fog 62 16.6 61 15.9 96 96 Calm 29.94 1014 5 8.0467 0 0
1:15 am 01:15 Clear with Mist and Fog 62 16.5 60 15.7 95 95 Calm 29.94 1014 2 3.21868 0 0
1:35 am 01:35 Clear with Mist and Fog 61 16 59 15.2 95 95 NW 3 6 29.97 1015 3 4.82802 0 0
1:55 am 01:55 Partly Cloudy with Mist and Fog 61 16.3 60 15.6 96 96 WNW 3 6 29.97 1015 2.5 4.02335 0 0
2:15 am 02:15 Mostly Cloudy with Mist and Fog 61 16 60 15.3 96 96 WNW 3 6 29.97 1015 0.75 1.207005 0 0
2:35 am 02:35 Partly Cloudy with Mist and Fog 60 15.3 58 14.6 96 96 NW 3 6 29.97 1015 4 6.43736 0 0
2:55 am 02:55 Cloudy with Fog 60 15.8 59 15.1 96 96 WNW 3 6 29.97 1015 0.25 0.402335 0 0
3:15 am 03:15 Cloudy with Fog 62 16.6 61 16 96 96 WNW 5 7 29.94 1014 0.25 0.402335 0 0
3:35 am 03:35 Cloudy with Fog 61 16.3 60 15.6 96 96 WNW 3 6 29.97 1015 5 8.0467 0 0
3:55 am 03:55 Cloudy with Fog 61 16.1 60 15.5 96 96 Calm 29.97 1015 0.25 0.402335 0 0
4:15 am 04:15 Cloudy with Fog 61 16.2 60 15.5 96 96 Calm 30 1016 5 8.0467 0 0
4:35 am 04:35 Cloudy with Fog 61 16.2 60 15.5 96 96 Calm 30 1016 0.25 0.402335 0 0
4:55 am 04:55 Cloudy with Fog 61 16 60 15.3 96 96 WNW 6 9 30 1016 0.25 0.402335 0 0
5:15 am 05:15 Mostly Cloudy with Mist and Fog 60 15.6 59 15 96 96 NW 3 6 30 1016 1 1.60934 0 0
5:35 am 05:35 Partly Cloudy with Mist and Fog 60 15.3 58 14.7 96 96 Calm 30 1016 2.5 4.02335 0 0
5:55 am 05:55 Cloudy with Fog 59 15.2 58 14.6 96 96 Calm 29.97 1015 0.5 0.80467 0 0
6:15 am 06:15 Cloudy with Fog 58 14.6 57 14 96 96 WNW 3 6 29.97 1015 0.25 0.402335 0 0
6:35 am 06:35 Cloudy with Fog 59 14.8 58 14.2 96 96 WNW 5 7 29.97 1015 5 8.0467 0 0
6:55 am 06:55 Cloudy with Fog 60 15.5 59 15 97 97 W 5 7 29.97 1015 5 8.0467 0 0
7:15 am 07:15 Cloudy with Fog 60 15.3 58 14.7 96 96 Calm 29.97 1015 0.25 0.402335 0 0
7:35 am 07:35 Cloudy with Fog 60 15.5 59 14.8 96 96 Calm 30 1016 0.5 0.80467 0 0
7:55 am 07:55 Cloudy with Mist and Fog 61 16 60 15.3 96 96 Calm 30 1016 1.25 2.011675 0 0
8:15 am 08:15 Mostly Cloudy with Mist and Fog 62 16.5 61 16 97 97 Calm 30 1016 2.5 4.02335 0 0
8:35 am 08:35 Partly Cloudy with Mist and Fog 63 17 62 16.4 96 96 Calm 29.97 1015 4 6.43736 0 0
8:55 am 08:55 Mostly Cloudy with Mist and Fog 64 17.6 63 17 96 96 Calm 29.97 1015 4 6.43736 0 0
9:15 am 09:15 Cloudy with Mist and Fog 65 18.4 64 17.7 96 96 Calm 29.97 1015 4 6.43736 0 0
9:35 am 09:35 Mostly Cloudy 66 19 65 18.3 96 96 Calm 29.97 1015 7 11.26538 0 0
9:55 am 09:55 Partly Cloudy 67 19.7 66 19 96 96 Calm 29.97 1015 7 11.26538 0 0
10:15 am 10:15 Partly Cloudy 69 20.6 66 19.1 91 91 Calm 29.94 1014 10 16.0934 0 0
10:35 am 10:35 Partly Cloudy 71 21.5 67 19.6 89 89 Calm 29.94 1014 10 16.0934 0 0
10:55 am 10:55 Partly Cloudy 72 22 66 19 83 83 Calm 29.94 1014 10 16.0934 0 0
11:15 am 11:15 Sunny 74 23.6 66 19.1 76 76 Calm 29.94 1014 10 16.0934 0 0
11:35 am 11:35 Sunny N/A N/A N/A Calm N/A 10 16.0934 0 0
11:55 am 11:55 Sunny N/A N/A N/A SSW 3 6 N/A 10 16.0934 0 0
12:15 pm 12:15 Sunny N/A N/A N/A SE 5 7 N/A 10 16.0934 0 0
12:35 pm 12:35 Sunny N/A N/A N/A SE 6 9 N/A 10 16.0934 0 0
12:55 pm 12:55 Sunny N/A N/A N/A SSE 8 13 N/A 10 16.0934 0 0
1:15 pm 13:15 Sunny N/A N/A N/A S 8 13 N/A 10 16.0934 0 0
1:35 pm 13:35 Sunny 82 27.7 64 17.5 54 54 S 5 7 29.85 1011 10 16.0934 0 0
1:55 pm 13:55 Sunny N/A N/A N/A S 8 13 N/A 10 16.0934 0 0
2:15 pm 14:15 Sunny N/A N/A N/A SSW 8 13 N/A 10 16.0934 0 0
2:35 pm 14:35 Sunny N/A N/A N/A SSE 7 11 N/A 10 16.0934 0 0
2:55 pm 14:55 Sunny 84 28.8 61 15.9 46 46 SSE 9 15 29.83 1010 10 16.0934 0 0
3:15 pm 15:15 Sunny N/A N/A N/A SSE 8 13 N/A 10 16.0934 0 0
3:35 pm 15:35 Sunny N/A N/A N/A SE 6 9 N/A 10 16.0934 0 0
3:55 pm 15:55 Sunny 84 28.8 60 15.4 44 44 SSE 9 15 29.83 1010 10 16.0934 0 0
4:15 pm 16:15 Sunny 83 28.6 62 16.5 48 48 Calm 29.83 1010 10 16.0934 0 0
4:35 pm 16:35 Partly Cloudy N/A N/A N/A SE 8 13 N/A 10 16.0934 0 0
4:55 pm 16:55 Mostly Cloudy 83 28.4 62 16.6 49 49 SE 7 11 29.83 1010 10 16.0934 0 0
5:15 pm 17:15 Cloudy 82 27.9 63 17.4 53 53 ESE 8 13 29.83 1010 10 16.0934 0 0
5:35 pm 17:35 Cloudy 82 27.8 63 17.2 53 53 E 10 17 29.83 1010 10 16.0934 0 0
5:55 pm 17:55 Cloudy 83 28.2 64 17.6 53 53 E 9 15 29.8 1009 10 16.0934 0 0
6:15 pm 18:15 Cloudy 81 27.2 64 17.5 55 55 E 10 17 29.83 1010 10 16.0934 0 0
6:35 pm 18:35 Cloudy 81 27.1 64 17.8 57 57 E 10 17 29.83 1010 10 16.0934 0 0
6:55 pm 18:55 Cloudy 80 26.5 64 17.9 59 59 ESE 9 15 29.85 1011 10 16.0934 0 0
7:15 pm 19:15 Cloudy 81 27.1 63 17.3 55 55 SE 10 17 29.83 1010 10 16.0934 0 0
7:35 pm 19:35 Partly Cloudy 79 26 63 17.4 59 59 SE 12 19 29.83 1010 10 16.0934 0 0
7:55 pm 19:55 Partly Cloudy 77 25.2 64 17.8 64 64 E 8 13 29.85 1011 10 16.0934 0 0
8:15 pm 20:15 Partly Cloudy 77 25 63 17.4 63 63 ESE 7 11 29.85 1011 10 16.0934 0 0
8:35 pm 20:35 Mostly Cloudy with Light Thunderstorms 75 23.9 65 18.3 71 71 W 9 15 29.91 1013 10 16.0934 0 0
8:55 pm 20:55 Mostly Cloudy with Light Rain 71 21.8 65 18.6 82 82 SSW 9 15 29.91 1013 10 16.0934 0.1 2.54
9:15 pm 21:15 Partly Cloudy with Light Drizzle 71 21.5 64 17.8 80 80 SE 9 15 29.91 1013 10 16.0934 0 0
9:35 pm 21:35 Partly Cloudy 70 21.1 62 16.5 75 75 SSE 8 13 29.91 1013 10 16.0934 0 0
9:55 pm 21:55 Partly Cloudy 69 20.6 63 17.2 81 81 SSE 7 11 29.91 1013 10 16.0934 0 0
10:15 pm 22:15 Clear 67 19.7 64 17.5 87 87 SSE 7 11 29.94 1014 10 16.0934 0 0
10:35 pm 22:35 Partly Cloudy 68 19.9 64 17.5 86 86 SSE 3 6 29.91 1013 10 16.0934 0 0
10:55 pm 22:55 Mostly Cloudy 69 20.4 65 18.1 87 87 SE 5 7 29.91 1013 10 16.0934 0 0
11:15 pm 23:15 Partly Cloudy 68 19.9 64 17.7 87 87 NE 7 11 29.91 1013 10 16.0934 0 0
11:35 pm 23:35 Partly Cloudy 67 19.3 64 17.7 91 91 ENE 7 11 29.94 1014 10 16.0934 0 0
11:55 pm 23:55 Mostly Cloudy with Heavy Rain 68 20.2 65 18.5 90 90 NNE 9 15 29.91 1013 2.5 4.02335 0.09 2.286

Powered by AerisWeather